Location: Les Moreaux
(47.2278°N, 1.4966°E)
Time: 01:03:05
(UTC+00:00)

NOSS 3-1 (C) - Pass Details

Date: 19 May 2025
Orbit: 632 x 1571 km, 63.4° (Epoch: 17 June)

Event Time Altitude Azimuth Distance (km) Brightness Sun altitude
Rises 22:05:59 0° 237° (WSW) 3,002 6.0 -18.8°
Reaches altitude 10° 22:08:11 10° 243° (WSW) 2,154 5.3 -19.0°
Maximum altitude 22:12:54 50° 319° (NW) 989 3.9 -19.3°
Drops below altitude 10° 22:18:41 10° 35° (NE) 2,624 6.2 -19.7°
Sets 22:21:37 0° 40° (NE) 3,727 6.9 -19.9°
